Regional Weather Roundup
Issued by NWS

Home | Current Version | Previous Version | Text Only | Print | Product List | Glossary On
Versions: 1 2 3 4 5 6 7 8 9 10 11 12 13 14 15 16 17 18 19 20 21 22 23 24 25 26 27 28 29 30 31 32 33 34 35 36 37 38 39 40 41 42 43 44 45 46 47 48 49 50
000
ASUS44 KFWD 221915
RWRTX
NORTH TEXAS HOURLY WEATHER ROUNDUP
NATIONAL WEATHER SERVICE FORT WORTH TX
100 PM CST WED FEB 22 2017

NOTE: "FAIR" INDICATES FEW OR NO CLOUDS BELOW 12,000 FEET WITH NO
SIGNIFICANT WEATHER AND/OR OBSTRUCTIONS TO VISIBILITY.

TXZ118-119-222000-
DALLAS/FORT WORTH METROPLEX

CITY           SKY/WX    TMP DP  RH WIND       PRES   REMARKS
DFW AIRPORT    MOSUNNY   80  41  24 S13       29.83F
DALLAS LOVE    MOSUNNY   79  42  26 S10       29.84F
FTW MEACHAM    SUNNY     81  36  19 S9        29.83F
DAL-EXECUTIVE  SUNNY     77  44  30 SE12      29.84F
FTW-ALLIANCE   MOSUNNY   81  36  19 S12       29.83F
FTW-NAS-JRB    MOSUNNY   81  40  23 S10       29.84F
FTW-SPINKS     SUNNY     81  39  22 S8        29.86F
ARLINGTON      SUNNY     77  43  29 VRB7      29.85F
GRAND PRAIRIE  SUNNY     77  43  29 S6        29.85F
ADDISON        SUNNY     77  43  29 S8        29.85F
MESQUITE       SUNNY     75  45  33 SE8       29.85F
LANCASTER      SUNNY     75  46  35 SW8       29.86F
$$

TXZ091>094-102>105-117-120-121-131>134-222000-
NORTH CENTRAL TEXAS

CITY           SKY/WX    TMP DP  RH WIND       PRES   REMARKS
SHRMAN/DENISON SUNNY     76  45  32 S10G17    29.83F
GAINESVILLE    SUNNY     76  44  31 SE13      29.84F
BOWIE          SUNNY     82  35  18 S17       29.82F
BRIDGEPORT     SUNNY     82  35  18 S8G16     29.84F
DECATUR        SUNNY     79  39  23 S10       29.83F
DENTON         SUNNY     79  40  24 SE12      29.82F
MCKINNEY       SUNNY     75  44  33 S9        29.84F
BONHAM         SUNNY     75  48  38 S9        29.84F
GREENVILLE     SUNNY     75  46  35 S7        29.84F
ROCKWALL       SUNNY     76  47  36 S7G20     29.85F
TERRELL        SUNNY     75  47  36 S9        29.85F
WAXAHACHIE     SUNNY     76  45  32 S8        29.87F
CLEBURNE       SUNNY     77  41  27 SE9       29.86F
GRANBURY       SUNNY     82  38  20 S8        29.85F
$$

TXZ083>090-098>101-113>116-127>130-139>142-154-155-222000-
WESTERN NORTH TEXAS

CITY           SKY/WX    TMP DP  RH WIND       PRES   REMARKS
WICHITA FALLS  MOSUNNY   74  37  26 W6        29.80F
WF-KICKAPOO    SUNNY     76  40  27 SW3       29.82F
VERNON         SUNNY     78  29  16 CALM      29.81F
ABILENE        SUNNY     82  41  23 W8        29.87F
ABILENE-DYESS  SUNNY     84  45  25 NW6       29.85F
GRAHAM         SUNNY     81  43  26 S6        29.81F
BRECKENRIDGE   SUNNY     83  36  18 S6        29.82F HAZE
CISCO          SUNNY     84  34  16 NW10      29.86F
RANGER         SUNNY     81  39  22 SW6       29.85F
MINERAL WELLS  SUNNY     84  31  14 S10G21    29.81F
STEPHENVILLE   SUNNY     82  38  20 SW10      29.87F
COMANCHE       SUNNY     82  45  27 SW5       29.86F
BROWNWOOD      SUNNY     77  43  29 W5        29.87F
COLEMAN        SUNNY     85  39  19 NW12      29.87F
$$

TXZ143>147-156>162-174-175-222000-
CENTRAL TEXAS

CITY           SKY/WX    TMP DP  RH WIND       PRES   REMARKS
WACO           SUNNY     78  46  32 S9        29.86F
WACO-MCGREGOR  SUNNY     79  49  34 S8        29.86F
HILLSBORO      SUNNY     75  50  41 S8        29.87F
CORSICANA      SUNNY     83  47  28 S9        29.87F
MEXIA          SUNNY     76  42  28 S5        29.86F
HEARNE         SUNNY     75  46  35 SE6       29.89F
CAMERON        SUNNY     77  50  39 S7        29.87F
TEMPLE         SUNNY     80  43  26 S12       29.87F
KILLEEN        SUNNY     81  39  22 S9        29.85F
KILLEEN-SKYLRK SUNNY     82  39  21 SW12      29.86F
FORT HOOD      SUNNY     82  38  20 S9        29.83F
GATESVILLE     SUNNY     81  39  22 SW8       29.87F
HAMILTON       SUNNY     82  40  22 SW10      29.87F
LAMPASAS       SUNNY     80  43  26 SW7       29.87F
$$

TXZ095>097-106>112-122>126-135>138-148>153-164>167-222000-
EAST TEXAS

CITY           SKY/WX    TMP DP  RH WIND       PRES   REMARKS
PARIS          SUNNY     73  54  49 S8        29.84F
SULPHUR SPRNGS SUNNY     75  54  47 SW3       29.86F
MOUNT PLEASANT SUNNY     74  54  49 CALM      29.86F
GILMER         SUNNY     72  55  54 CALM      29.85F
MINEOLA        SUNNY     75  54  46 W3        29.84F
TYLER          SUNNY     75  53  46 VRB6      29.85F
LONGVIEW       SUNNY     74  59  59 E6        29.84F
MARSHALL       SUNNY     72  56  55 CALM      29.87F
ATHENS         SUNNY     73  45  35 CALM      29.84F
PALESTINE      SUNNY     76  49  38 SW5       29.87F
JACKSONVILLE   SUNNY     74  55  50 CALM      29.88F
HENDERSON      SUNNY     74  56  53 CALM      29.87F
CENTER         CLEAR     76  59  54 NE5       29.87F
NACOGDOCHES    SUNNY     73  57  56 S5        29.84F
LUFKIN         SUNNY     75  56  51 CALM      29.86F
$$

SUPPLEMENTAL OBSERVATIONS (CENTRAL)

CITY           SKY/WX    TMP DP  RH WIND       PRES   REMARKS
DENISON DAM      N/A     75  36  23 S8          N/A
CADDO GRASSLND   N/A     77  52  41 S7          N/A
PAT MAYSE LAKE   N/A     72  54  53 S5          N/A
GREENVILLE       N/A     77  48  36 S7          N/A
CEDAR HILL       N/A     81  43  26 S5G13       N/A
ATHENS           N/A     79  46  31 S3          N/A
LAKE LIMESTONE   N/A     81  43  26 S3          N/A
MCGREGOR         N/A     79  46  31 S10         N/A
TEMPLE           N/A     79  48  34 S10         N/A
$$

SUPPLEMENTAL OBSERVATIONS (WEST)

CITY           SKY/WX    TMP DP  RH WIND       PRES   REMARKS
MILLERS CREEK    N/A     81  45  28 W6          N/A
POSSUM KINGDOM   N/A     82  37  20 SW6         N/A
LBJ GRASSLAND    N/A     82  36  18 S10         N/A
GRANBURY         N/A     82  36  18 SW10        N/A
COMANCHE         N/A     82  41  23 SW9         N/A
HAMBY            N/A     82  45  26 W10         N/A
IVIE RESERVOIR   N/A     82  43  24 W9          N/A
COLORADO BEND    N/A     82  45  26 W8          N/A
$$

SUPPLEMENTAL OBSERVATIONS (EAST)

CITY           SKY/WX    TMP DP  RH WIND       PRES   REMARKS
CLARKSVILLE      N/A     73  54  49 E7          N/A
TEXARKANA        N/A     72  57  60 SE6         N/A
LINDEN           N/A     75  57  53 SE5         N/A
CADDO LAKE       N/A    N/A N/A N/A NE5         N/A
GILMER           N/A     77  55  47 E2          N/A
HENDERSON        N/A     75  55  50 SE3         N/A
LUFKIN           N/A     77  55  47 MISG        N/A
N SABINE NF      N/A     75  57  53 MISG        N/A
S SABINE NF      N/A     70  55  60 NW5         N/A
$$

SUPPLEMENTAL OBSERVATIONS ARE A COLLECTION OF AUTOMATED INSTRUMENTS
THAT ARE MAINTAINED BY A VARIETY OF FEDERAL AND STATE AGENCIES.
CERTAIN ELEMENTS...SUCH AS HUMIDITY VALUES AND SUSTAINED WIND
SPEEDS...MAY BE APPROXIMATED.





USA.gov is the U.S. government's official web portal to all federal, state and local government web resources and services.